Skip Page Navigation
NASA JPL Caltech
NASA Logo - Jet Propulsion Laboratory + View the NASA Portal
+ Near-Earth Object (NEO) Program
Search JPL
JPL Home Earth Solar System Stars & Galaxies Technology
JPL Solar System Dynamics
BODIES ORBITS EPHEMERIDES TOOLS PHYSICAL DATA DISCOVERY FAQ SITE MAP
JPL Small-Body Database Browser
Search: [ help ]  
(2007 TR24)
Classification: Apollo [NEO, PHA]          SPK-ID: 3388312
Ephemeris | Orbit Diagram | Orbital Elements | Physical Parameters | Close-Approach Data ]

[ hide orbit diagram ]
Orbit Diagram
Note: Make sure you have Java enabled on your browser to see the applet. This applet is provided as a 3D orbit visualization tool. The applet was implemented using 2-body methods, and hence should not be used for determining accurate long-term trajectories (over several years or decades) or planetary encounter circumstances. For accurate long-term ephemerides, please instead use our Horizons system.
Orbit Viewer

Additional Notes: the orbits shown in the applet are color coded. The planets are white lines, and the asteroid/comet is a blue line. The bright white line indicates the portion of the orbit that is above the ecliptic plane, and the darker portion is below the ecliptic plane. Likewise for the asteroid/comet orbit, the light blue indicates the portion above the ecliptic plane, and the dark blue the portion below the ecliptic plane.

Orbit Viewer applet originally written and kindly provided by Osamu Ajiki (AstroArts), and further modified by Ron Baalke (JPL).


Orbital Elements at Epoch 2456400.5 (2013-Apr-18.0) TDB
Reference: JPL 13 (heliocentric ecliptic J2000)
 Element Value Uncertainty (1-sigma)   Units 
e .6685823209948661 9.8701e-07  
a 1.872810738748831 5.2028e-07 AU
q .6206825882520276 1.6804e-06 AU
i 3.571642110105603 2.0667e-05 deg
node 87.19336274499496 0.00072076 deg
peri 36.93504592560371 0.00072023 deg
M 26.02199288258947 0.00032949 deg
tp 2456332.832938656800
(2013-Feb-09.33293866)
0.00082865 JED
period 936.1366822850284
2.56
0.00039009
1.068e-06
d
yr
n .3845592281687661 1.6025e-07 deg/d
Q 3.124938889245634 8.6812e-07 AU
  Orbit Determination Parameters
   # obs. used (total)      77  
   data-arc span      2069 days (5.66 yr)  
   first obs. used      2007-09-16  
   last obs. used      2013-05-16  
   planetary ephem.      DE405  
   SB-pert. ephem.      SB405-CPV-2  
   condition code      1  
   fit RMS      .57816  
   data source      ORB  
   producer      Otto Matic  
   solution date      2013-May-18 01:15:10  

Additional Information
 Earth MOID = .0467416 AU 
 T_jup = 3.669 
[ show covariance matrix ]

Ephemeris | Orbit Diagram | Orbital Elements | Physical Parameters | Close-Approach Data ]

Physical Parameter Table
Parameter Symbol Value Units Sigma Reference Notes
absolute magnitude H 20.463 mag .47024 13 autocmod 2.5c

[ show close-approach data ]
Ephemeris | Orbit Diagram | Orbital Elements | Physical Parameters | Close-Approach Data ]
ABOUT SSD CREDITS/AWARDS PRIVACY/COPYRIGHT GLOSSARY LINKS
FirstGov 2013-May-21 14:18 UT
(server date/time)  
NASA Home Page
Site Manager:   Donald K. Yeomans
Webmaster  Alan B. Chamberlin